Location: Nairn
(57.5833°N, 3.8667°W)
Time: 03:05:41
(UTC+00:00)

Vanguard 1 Rocket - Pass Details

Date: 01 December 2020
Orbit: 655 x 4221 km, 34.3° (Epoch: 20 January)

Event Time Altitude Azimuth Distance (km) Brightness Sun altitude
Exits shadow 03:17:15 34° 191° (S) 4,953 10.7 -40.2°
Maximum altitude 03:19:12 35° 182° (S) 4,803 10.7 -40.0°
Drops below altitude 10° 03:33:28 10° 125° (SE) 5,234 11.5 -38.2°
Sets 03:37:12 0° 117° (ESE) 5,804 12.0 -37.8°
